Weather History for KSLH - February, 2014

Change the Weather History Date:

Friday, February 7, 2014

  Actual Average (KPLN) Record (KPLN)
Temperature  
Mean Temperature 10 °F -  
Max Temperature 15 °F 25 °F 43 °F (1965)
Min Temperature 6 °F 4 °F -32 °F (1967)
Degree Days  
Heating Degree Days 54    
Moisture  
Dew Point 5 °F    
Average Humidity 75    
Maximum Humidity 81    
Minimum Humidity 66    
Precipitation  
Precipitation 0.00 in - - ()
Sea Level Pressure  
Sea Level Pressure 30.04 in    
Wind  
Wind Speed 14 mph (SW)    
Max Wind Speed 26 mph    
Max Gust Speed 40 mph    
Visibility 6 miles    
Events Snow    
Averages and records for this station are not official NWS values.
T = Trace of Precipitation, MM = Missing Value Source: NWS Daily Summary

Daily Weather History Graph

Daily Weather History Graph

Search for Another Location

Airport or City:

Trip Planner

Search our weather history database for the weather conditions in past years. The results will help you decide how hot, cold, wet, or windy it might be!

Date:

Astronomy

Feb. 07, 2014 Rise Set
Actual Time 7:51 AM EST 5:53 PM EST
Civil Twilight 7:20 AM EST 6:24 PM EST
Nautical Twilight 6:45 AM EST 6:59 PM EST
Astronomical Twilight 6:10 AM EST 7:34 PM EST
Moon 12:00 PM EST (2/7) 2:09 AM EST (2/7)
Length of Visible Light 11h 03m
Length of Day
10h 01m
First Quarter, 59% of the Moon is Illuminated
Feb 7
First Quarter
Feb 14
Full
Feb 22
Last Quarter
Mar 1
New
Mar 8
First Quarter

Hourly Weather History & Observations

Time (EST) Temp. Windchill Dew Point Humidity Pressure Visibility Wind Dir Wind Speed Gust Speed Precip Events Conditions
12:15 AM 12.2 °F -1.0 °F 4.8 °F 72% 30.06 in 10.0 mi WSW 10.4 mph 17.3 mph N/A   Overcast
12:35 AM 12.2 °F -1.8 °F 4.8 °F 72% 30.06 in 10.0 mi WSW 11.5 mph 16.1 mph N/A   Overcast
12:55 AM 11.7 °F -5.5 °F 4.1 °F 72% 30.06 in 4.0 mi WSW 17.3 mph 25.3 mph N/A Snow Light Snow
1:15 AM 11.3 °F -6.0 °F 3.6 °F 71% 30.06 in 7.0 mi WSW 17.3 mph 23.0 mph N/A Snow Light Snow
1:35 AM 11.1 °F -5.1 °F 3.6 °F 72% 30.06 in 5.0 mi WSW 15.0 mph 24.2 mph N/A   Haze
1:55 AM 10.6 °F -4.5 °F 4.1 °F 75% 30.06 in 3.0 mi WSW 12.7 mph 25.3 mph N/A Snow Light Snow
2:15 AM 10.0 °F -5.9 °F 4.1 °F 77% 30.06 in 2.5 mi WSW 13.8 mph 24.2 mph N/A Snow Light Snow
2:35 AM 9.5 °F -5.9 °F 4.5 °F 80% 30.07 in 1.8 mi SW 12.7 mph 20.7 mph N/A Snow Light Snow
2:55 AM 9.1 °F -8.8 °F 2.7 °F 75% 30.07 in 2.5 mi WSW 17.3 mph 23.0 mph N/A Snow Light Snow
3:15 AM 8.4 °F -7.3 °F 1.4 °F 73% 30.07 in 7.0 mi WSW 12.7 mph 20.7 mph N/A Snow Light Snow
3:35 AM 7.7 °F -9.5 °F 1.4 °F 75% 30.07 in 7.0 mi SW 15.0 mph - N/A Snow Light Snow
3:55 AM 7.5 °F -9.7 °F 1.2 °F 75% 30.06 in 7.0 mi WSW 15.0 mph 23.0 mph N/A Snow Light Snow
4:15 AM 7.5 °F -8.4 °F 1.4 °F 76% 30.06 in 7.0 mi WSW 12.7 mph - N/A Snow Light Snow
4:35 AM 7.5 °F -6.0 °F 1.6 °F 77% 30.06 in 5.0 mi WSW 9.2 mph 18.4 mph N/A Snow Light Snow
4:55 AM 7.3 °F -7.1 °F 1.4 °F 77% 30.06 in 7.0 mi WSW 10.4 mph 19.6 mph N/A Snow Light Snow
5:16 AM 6.8 °F -4.8 °F 2.1 °F 81% 30.06 in 4.0 mi SW 6.9 mph - N/A Snow Light Snow
5:35 AM 6.8 °F -7.8 °F 2.1 °F 81% 30.05 in 3.0 mi SW 10.4 mph - N/A Snow Light Snow
5:55 AM 6.8 °F -7.8 °F 1.4 °F 79% 30.05 in 7.0 mi SW 10.4 mph 17.3 mph N/A Snow Light Snow
6:15 AM 6.8 °F -8.6 °F 1.4 °F 79% 30.05 in 7.0 mi SW 11.5 mph 19.6 mph N/A   Overcast
6:35 AM 7.2 °F -8.1 °F 1.4 °F 77% 30.05 in 10.0 mi SW 11.5 mph 17.3 mph N/A   Overcast
6:55 AM 7.2 °F -8.1 °F 1.8 °F 79% 30.05 in 5.0 mi SW 11.5 mph 17.3 mph N/A Snow Light Snow
7:15 AM 6.8 °F -9.3 °F 1.8 °F 80% 30.04 in 7.0 mi SW 12.7 mph 18.4 mph N/A   Overcast
7:35 AM 6.8 °F -10.0 °F 1.4 °F 79% 30.04 in 10.0 mi SW 13.8 mph - N/A   Overcast
7:55 AM 7.3 °F -7.1 °F 1.6 °F 77% 30.05 in 10.0 mi SW 10.4 mph - N/A   Overcast
8:15 AM 7.7 °F -8.2 °F 1.9 °F 77% 30.05 in 10.0 mi SW 12.7 mph 18.4 mph N/A   Overcast
8:35 AM 8.1 °F -5.3 °F 2.1 °F 77% 30.05 in 10.0 mi SW 9.2 mph 16.1 mph N/A   Overcast
8:55 AM 8.2 °F -5.1 °F 2.3 °F 77% 30.05 in 7.0 mi SW 9.2 mph - N/A   Overcast
9:15 AM 8.6 °F -4.7 °F 2.7 °F 77% 30.05 in 7.0 mi SW 9.2 mph - N/A   Overcast
9:35 AM 9.1 °F -7.0 °F 2.8 °F 76% 30.05 in 5.0 mi SW 13.8 mph 17.3 mph N/A   Haze
9:55 AM 9.5 °F -7.2 °F 3.2 °F 76% 30.05 in 4.0 mi SSW 15.0 mph 19.6 mph N/A   Haze
10:15 AM 10.0 °F -4.5 °F 4.1 °F 77% 30.05 in 2.5 mi SW 11.5 mph 21.9 mph N/A   Haze
10:35 AM 10.4 °F -4.1 °F 4.8 °F 78% 30.04 in 2.5 mi SW 11.5 mph 20.7 mph N/A Snow Light Snow
10:55 AM 10.9 °F -3.4 °F 5.0 °F 77% 30.04 in 2.0 mi SW 11.5 mph 18.4 mph N/A Snow Light Snow
11:15 AM 12.0 °F -4.5 °F 5.7 °F 76% 30.04 in 2.0 mi SW 16.1 mph 19.6 mph N/A Snow Light Snow
11:35 AM 12.6 °F -5.3 °F 5.9 °F 75% 30.03 in 2.0 mi SW 19.6 mph 28.8 mph N/A Snow Light Snow
11:55 AM 13.3 °F -5.3 °F 5.9 °F 72% 30.03 in 1.5 mi SW 21.9 mph 32.2 mph N/A   Haze
12:15 PM 13.1 °F -4.6 °F 6.3 °F 74% 30.03 in 1.2 mi WSW 19.6 mph 25.3 mph N/A Snow Light Snow
12:35 PM 13.1 °F -5.1 °F 5.5 °F 72% 30.02 in 3.0 mi SW 20.7 mph 31.1 mph N/A   Haze
12:55 PM 13.3 °F -3.9 °F 5.5 °F 71% 30.02 in 1.5 mi WSW 18.4 mph 32.2 mph N/A   Haze
1:15 PM 13.5 °F -5.8 °F 5.0 °F 69% 30.01 in 2.5 mi WSW 24.2 mph 33.4 mph N/A   Haze
1:35 PM 13.6 °F -1.9 °F 5.9 °F 71% 30.01 in 2.0 mi WSW 15.0 mph 31.1 mph N/A Snow Light Snow
1:55 PM 13.3 °F -5.7 °F 5.7 °F 72% 30.00 in 1.5 mi SW 23.0 mph 40.3 mph N/A Snow Light Snow
2:15 PM 13.8 °F -6.1 °F 5.7 °F 70% 30.00 in 2.5 mi SW 26.5 mph 34.5 mph N/A   Haze
2:35 PM 13.8 °F -2.2 °F 6.1 °F 71% 30.00 in 3.0 mi WSW 16.1 mph 27.6 mph N/A Snow Light Snow
2:55 PM 14.0 °F -2.0 °F 7.2 °F 74% 30.00 in 2.0 mi SW 16.1 mph 27.6 mph N/A Snow Light Snow
3:15 PM 14.0 °F 0.5 °F 7.7 °F 76% 30.01 in 1.8 mi SW 11.5 mph 26.5 mph N/A Snow Light Snow
3:35 PM 14.0 °F -3.0 °F 7.7 °F 76% 30.01 in 1.2 mi WSW 18.4 mph 25.3 mph N/A Snow Light Snow
3:55 PM 14.0 °F -3.4 °F 7.5 °F 75% 30.01 in 1.8 mi WSW 19.6 mph 28.8 mph N/A Snow Light Snow
4:15 PM 14.0 °F -3.0 °F 6.8 °F 73% 30.02 in 2.0 mi SW 18.4 mph 32.2 mph N/A   Haze
4:35 PM 14.0 °F -3.9 °F 7.0 °F 74% 30.01 in 3.0 mi SW 20.7 mph 28.8 mph N/A   Haze
4:55 PM 14.0 °F -1.4 °F 7.5 °F 75% 30.02 in 3.0 mi SW 15.0 mph 27.6 mph N/A Snow Light Snow
5:15 PM 14.4 °F -2.0 °F 7.7 °F 75% 30.01 in 3.0 mi SW 17.3 mph 28.8 mph N/A Snow Light Snow
5:35 PM 14.5 °F -1.3 °F 8.2 °F 76% 30.02 in 2.5 mi SW 16.1 mph 31.1 mph N/A Snow Light Snow
5:55 PM 14.5 °F 1.1 °F 8.4 °F 77% 30.02 in 3.0 mi SW 11.5 mph 26.5 mph N/A Snow Light Snow
6:15 PM 14.7 °F 1.4 °F 8.6 °F 77% 30.03 in 4.0 mi SW 11.5 mph 23.0 mph N/A Snow Light Snow
6:35 PM 14.9 °F -0.8 °F 8.6 °F 76% 30.03 in 5.0 mi WSW 16.1 mph 27.6 mph N/A Snow Light Snow
6:55 PM 14.9 °F -2.3 °F 8.6 °F 76% 30.03 in 5.0 mi SW 19.6 mph 31.1 mph N/A Snow Light Snow
7:16 PM 15.3 °F -2.2 °F 9.0 °F 76% 30.04 in 7.0 mi WSW 20.7 mph 24.2 mph N/A Snow Light Snow
7:35 PM 15.6 °F 1.8 °F 9.1 °F 76% 30.05 in 7.0 mi WSW 12.7 mph 29.9 mph N/A Snow Light Snow
7:55 PM 15.8 °F 1.4 °F 9.3 °F 76% 30.05 in 10.0 mi WSW 13.8 mph 23.0 mph N/A Snow Light Snow
8:15 PM 15.8 °F 1.4 °F 9.5 °F 76% 30.05 in 7.0 mi SW 13.8 mph 25.3 mph N/A Snow Light Snow
8:35 PM 15.4 °F 0.4 °F 9.0 °F 76% 30.04 in 10.0 mi SW 15.0 mph 21.9 mph N/A   Mostly Cloudy
8:55 PM 15.1 °F -2.0 °F 8.4 °F 75% 30.04 in 10.0 mi WSW 19.6 mph 24.2 mph N/A   Scattered Clouds
9:15 PM 14.9 °F 0.9 °F 7.7 °F 73% 30.05 in 10.0 mi WSW 12.7 mph 20.7 mph N/A   Clear
9:35 PM 14.7 °F 0.1 °F 7.3 °F 73% 30.05 in 10.0 mi WSW 13.8 mph 21.9 mph N/A   Clear
9:55 PM 14.7 °F 1.4 °F 6.8 °F 71% 30.06 in 10.0 mi WSW 11.5 mph 16.1 mph N/A   Clear
10:15 PM 14.5 °F 2.7 °F 6.6 °F 71% 30.07 in 10.0 mi WSW 9.2 mph - N/A   Clear
10:35 PM 14.0 °F 2.0 °F 6.3 °F 71% 30.07 in 10.0 mi WSW 9.2 mph - N/A   Clear
10:55 PM 14.0 °F 2.9 °F 5.9 °F 70% 30.08 in 10.0 mi WSW 8.1 mph - N/A   Clear
11:15 PM 13.6 °F 2.5 °F 5.0 °F 68% 30.08 in 10.0 mi WSW 8.1 mph - N/A   Clear
11:35 PM 13.6 °F 2.5 °F 5.0 °F 68% 30.08 in 10.0 mi WSW 8.1 mph - N/A   Clear
11:55 PM 13.6 °F 1.6 °F 4.3 °F 66% 30.09 in 10.0 mi West 9.2 mph - N/A   Clear